Tracking 18823 objects as of 20-October-2017
HD Live streaming from Space Station
objects crossing your sky now

IRIDIUM 76

Track IRIDIUM 76 now!
10-day predictions
IRIDIUM 76 is classified as:


NORAD ID: 25432
Int'l Code: 1998-048B
Perigee: 783.2 km
Apogee: 786.4 km
Inclination: 86.4 °
Period: 100.4 minutes
Semi major axis: 7155 km
RCS: 4.1166 m2 (large)
Launch date: August 19, 1998
Source: United States (US)
Launch site: Taiyaun Space Center, China (TSC)

Spare; stored in 667 km storage orbit, not raised to 780 km operational orbit until needed
aabbcc
Your satellite tracking list
Your tracking list is empty





NASA's NSSDC Master Catalog

Two Line Element Set (TLE):
1 25432U 98048B   17293.15977238  .00000191  00000-0  61264-4 0  9993
2 25432  86.4015 203.2232 0002283  77.1281 283.0169 14.34222519  3507
Source of the keplerian elements: AFSPC